Regional Weather Roundup
Issued by NWS

Home | Current Version | Previous Version | Graphics & Text | Print | Product List | Glossary On
Versions: 1 2 3 4 5 6 7 8 9 10 11 12 13 14 15 16 17 18 19 20 21 22 23 24 25 26 27 28 29 30 31 32 33 34 35 36 37 38 39 40 41 42 43 44 45 46 47 48 49 50
663
ASUS43 KDMX 260208
RWRIA

WEATHER ROUNDUP FOR IOWA
NATIONAL WEATHER SERVICE DES MOINES IA
900 PM CDT MON JUL 25 2016

NOTE: "FAIR" INDICATES FEW OR NO CLOUDS BELOW 12,000 FEET WITH NO
SIGNIFICANT WEATHER AND/OR OBSTRUCTIONS TO VISIBILITY.

* - THESE STATIONS ARE NOT NWS STATIONS...THUS NOT UNDER NWS
QUALITY CONTROL.  THEY ALSO DO NOT REPORT WEATHER SUCH
AS PRECIPITATION OR FOG.

IAZ001>003-012>014-020>022-031>034-043>046-260300-
   NORTHWEST IOWA

CITY           SKY/WX    TMP DP  RH WIND       PRES   REMARKS
CARROLL *      CLEAR     73  72  94 CALM      30.07R
CHEROKEE *     CLEAR     73  68  86 CALM      30.06R
DENISON *      CLEAR     73  70  88 CALM      30.05R
LE MARS *      CLEAR     79  66  65 SE5       30.06R HX  81
SHELDON *      CLEAR     73  70  88 CALM      30.06R
SIOUX CITY     CLEAR     79  66  64 SE5       30.05R HX  81
SPENCER        CLEAR     75  70  84 CALM      30.06S
STORM LAKE *   CLEAR     73  66  78 SE3       30.08R
$$

IAZ055>058-069>071-079>083-090>094-260300-
   SOUTHWEST IOWA

CITY           SKY/WX    TMP DP  RH WIND       PRES   REMARKS
ATLANTIC *     CLEAR     75  68  78 CALM      30.07R
CLARINDA *       N/A     73  70  88 MISG      30.08S
COUNCIL BLFS * CLEAR     77  68  73 E3        30.07R
CRESTON *      CLEAR     73  66  78 E5        30.09R
HARLAN  *      CLEAR     72  68  88 CALM      30.10R
LAMONI         PTCLDY    74  64  71 CALM      30.06R
RED OAK *      CLEAR     77  68  73 CALM      30.06S
SHENANDOAH *   CLEAR     77  68  73 E5        30.06S
$$

IAZ047>049-059>061-072>074-084-260300-
   CENTRAL IOWA

CITY           SKY/WX    TMP DP  RH WIND       PRES   REMARKS
AMES           CLEAR     77  66  68 NE3       30.05R
ANKENY *         N/A    N/A N/A N/A MISG        N/A
BOONE *        CLEAR     75  68  78 NE3       30.06R
CHARITON *       N/A    N/A N/A N/A MISG        N/A
DES MOINES     PTCLDY    81  62  52 NE5       30.04R HX  82
GRINNELL*      CLEAR     72  64  77 N3        30.06R
KNOXVILLE *    CLEAR     77  63  61 NE3       30.04R
MARSHALLTOWN   CLEAR     73  66  78 N7        30.04S
NEWTON *       CLEAR     75  68  78 CALM      30.05R
PELLA *        CLEAR     72  65  78 CALM      30.06R
PERRY *          N/A     73  71  94 CALM      30.06R
$$

IAZ004>006-015-016-023>025-035-036-260300-
   NORTH CENTRAL IOWA

CITY           SKY/WX    TMP DP  RH WIND       PRES   REMARKS
ALGONA *       CLEAR     79  68  69 E3        30.06S HX  81
ESTHERVILLE    CLEAR     73  69  87 CALM      30.06S
FORT DODGE *   CLEAR     72  68  88 CALM      30.07R
MASON CITY     CLEAR     71  66  84 CALM      30.08R
FOREST CITY *    N/A     72  66  83 CALM      30.07R
IOWA FALLS *     N/A     74  66  74 CALM      30.07S
$$

IAZ007>011-017>019-026>030-037>042-050>054-066-260300-
   NORTHEAST IOWA

CITY           SKY/WX    TMP DP  RH WIND       PRES   REMARKS
CEDAR RAPIDS   CLEAR     76  65  68 N5        30.03R
CHARLES CITY * CLEAR     72  72 100 CALM      30.07R
CLINTON *      CLEAR     73  68  84 N5        30.03R
DECORAH *      CLEAR     72  66  83 CALM      30.05R
DUBUQUE        CLEAR     71  65  81 NW6       30.05R
MONTICELLO *   CLEAR     75  66  73 CALM      30.03S
OELWEIN *      CLEAR     73  66  78 N3        30.06R
WATERLOO       CLEAR     73  66  78 NW3       30.04R
$$

IAZ064-065-067-068-078-260300-
   EAST CENTRAL IOWA

CITY           SKY/WX    TMP DP  RH WIND       PRES   REMARKS
DAVENPORT      CLEAR     73  67  81 N5        30.03R
IOWA CITY      CLEAR     79  64  60 CALM      30.04R HX  81
MT. PLEASANT * PTCLDY    76  70  79 CALM      30.03S
MUSCATINE *    CLEAR     75  68  78 CALM      30.03R
QUAD CITIES    CLEAR     78  64  61 CALM      30.02R HX  80
$$

IAZ062-063-075>077-085>089-095>099-260300-
   SOUTHEAST IOWA

CITY           SKY/WX    TMP DP  RH WIND       PRES   REMARKS
BURLINGTON     CLOUDY    74  68  81 N3        30.03R
FAIRFIELD *    PTCLDY    73  68  83 CALM      30.04R
KEOKUK *       CLOUDY    77  70  78 CALM      30.03R
CENTERVILLE *    N/A     70  68  94 CALM      30.07R
OTTUMWA        CLOUDY    73  66  78 CALM      30.04R
WASHINGTON *   CLEAR     73  68  83 CALM      30.05R
$$

ABBREVIATIONS USED IN REMARKS
   TC - TEMPERATURES IN CELSIUS
  WCI - WIND CHILL INDEX
   HX - HEAT INDEX
  VSB - VISIBILITY
$$





USA.gov is the U.S. government's official web portal to all federal, state and local government web resources and services.